sat.trackr.live / text

‹ back to catalog

STARLINK-6037

NORAD 56461 · 2023-064P

PAYLOAD ACTIVE UNKNOWN

§ Identity

Operator
Country
US
Launch date
2023-05-10
Launch site
AFWTR
Launch vehicle
Mass (kg)
RCS (m²)

Purposes: comms

External: N2YO · Heavens-Above · Gunter

§ Orbital elements

Epoch: 2026-05-24T21:17:53.365344Z

Period
96.11 min
Inclination
69.9993°
Eccentricity
0.0002964
Mean motion
14.98330610 rev/d
Perigee alt
570.0 km
Apogee alt
574.1 km
Semi-major
6,950.2 km
B*
4.4716e-5
RAAN
312.1743°
Arg perigee
268.7310°
Mean anomaly
91.3509°
Rev number
16,666

§ Raw data

STARLINK-60371 56461U 23064P   26144.88742321  .00000441  00000+0  44716-4 0  99932 56461  69.9993 312.1743 0002964 268.7310  91.3509 14.98330610166665

JSON: /api/v1/satellites/56461 · /tle

For live sub-satellite position, see the globe view (requires WebGL).

§ Visibility from observer

Set your observer location to see the next 7 days of passes ≥ 10°. The values pass through the URL so the page stays shareable.

No JS? Fill the form by hand. The geolocation button needs JavaScript.